星链-2052 (STARLINK-2052 )

导读 | 星芒AI

STARLINK-2052 是 SpaceX 星链计划中的一颗低轨通信卫星,属于第二代星链卫星群。该卫星旨在提升全球互联网覆盖,特别是偏远地区的网络接入能力。采用先进推进系统和激光通信技术,提高数据传输效率和卫星自主运行能力。作为星链计划的重要组成部分,STARLINK-2052 有助于构建更稳定、高速的全球宽带网络,推动航天互联网技术的发展。

基本信息
目录编号:
47662
目录名称:
STARLINK-2052
国际标识:
2021-012AU
轨道中心:
EARTH
卫星名称:
星链-2052
卫星全名:
星链-2052 (STARLINK-2052 )
卫星状态:
在轨 (已飞行1716 天)
发射日期:
2021-02-16 UTC
国别 :
美国 (US)
星等 :
--
轨道信息
数据来源 国际轨道数据
星历时间: 2025-10-29T20:00:03+0800
7小时前
查看轨道信息
半长轴: 6809.06km
偏心率: 0.0010202
轨道倾角: 53.046°
近地点辐角 26.956°
升交点赤经 258.094°
平近点角 90.862°
近地点: 423.978km
远地点: 437.872km
周期: 93.195分钟
每日圈数: 15.451549
详细信息
固有亮度:
5
最大亮度:
2.5
卫星平台:
Starlink V1.0
覆盖范围:
全球
运营商:
太空探索技术公司
运营商所在国:
美国
制造商(研发单位):
太空探索技术公司
制造商所在国:
美国
使用方式:
暂无
卫星简介
星链(Starlink)计划是由太空探索技术公司(SpaceX)提出的一个巨型低轨卫星互联网星座项目,计划在2019年至2024年间在太空搭建由约1.2万颗卫星组成的“星链”网络,其中1584颗将部署在地球上空550千米处的近地轨道,并从2020年开始工作。该卫星仍在工作。
2D轨道图
3D轨道图
轨道高度分析图
轨道倾角分析图
轨道综合分析图
查看轨道综合分析图